Change the Weather History Date:

Thursday, October 30, 2014

  Actual Average Record
Temperature  
Mean Temperature 37 °F -  
Max Temperature 53 °F 41 °F 53 °F (2014)
Min Temperature 21 °F 16 °F 21 °F (2014)
Degree Days  
Heating Degree Days 28    
Moisture  
Dew Point 26 °F    
Average Humidity 80    
Maximum Humidity 100    
Minimum Humidity 35    
Precipitation  
Precipitation 0.00 in - - ()
Sea Level Pressure  
Sea Level Pressure 30.31 in    
Wind  
Wind Speed 1 mph (SSW)    
Max Wind Speed 7 mph    
Max Gust Speed -    
Visibility 10 miles    
Events      
Averages and records for this station are not official NWS values.
T = Trace of Precipitation, MM = Missing Value Source: NWS Daily Summary

Daily Weather History Graph

Daily Weather History Graph

Search for Another Location

Airport or City:

Trip Planner

Search our weather history database for the weather conditions in past years. The results will help you decide how hot, cold, wet, or windy it might be!

Date:

Astronomy

Oct. 30, 2014 Rise Set
Actual Time 7:59 AM MDT 6:15 PM MDT
Civil Twilight 7:29 AM MDT 6:46 PM MDT
Nautical Twilight 6:54 AM MDT 7:20 PM MDT
Astronomical Twilight 6:21 AM MDT 7:54 PM MDT
Moon 2:07 PM MDT (10/30) No Moon Set
Length of Visible Light 11h 16m
Length of Day
10h 16m
Waxing Crescent, 46% of the Moon is Illuminated
Oct 30
Waxing Crescent
Oct 30
First Quarter
Nov 6
Full
Nov 14
Last Quarter
Nov 22
New

Hourly Weather History & Observations

Time (MDT) Temp. Windchill Dew Point Humidity Pressure Visibility Wind Dir Wind Speed Gust Speed Precip Events Conditions
12:10 AM 26.6 °F - 24.8 °F 93% 30.31 in 10.0 mi Calm Calm - N/A   Partly Cloudy
12:30 AM 26.6 °F - 24.8 °F 93% 30.32 in 10.0 mi Calm Calm - N/A   Clear
12:50 AM 26.6 °F - 24.8 °F 93% 30.31 in 10.0 mi Calm Calm - N/A   Clear
1:10 AM 26.6 °F - 24.8 °F 93% 30.31 in 10.0 mi Calm Calm - N/A   Clear
1:30 AM 24.8 °F - 24.8 °F 100% 30.32 in 10.0 mi Calm Calm - N/A   Clear
1:50 AM 24.8 °F - 24.8 °F 100% 30.32 in 10.0 mi Calm Calm - N/A   Clear
2:10 AM 24.8 °F - 24.8 °F 100% 30.32 in 10.0 mi Calm Calm - N/A   Clear
2:30 AM 24.8 °F - 23.0 °F 93% 30.33 in 10.0 mi Calm Calm - N/A   Partly Cloudy
2:50 AM 23.0 °F 18.4 °F 23.0 °F 100% 30.33 in 10.0 mi SSW 3.5 mph - N/A   Scattered Clouds
3:10 AM 23.0 °F - 23.0 °F 100% 30.33 in 10.0 mi Calm Calm - N/A   Mostly Cloudy
3:30 AM 23.0 °F - 23.0 °F 100% 30.33 in 10.0 mi Calm Calm - N/A   Mostly Cloudy
3:50 AM 24.8 °F - 23.0 °F 93% 30.34 in 10.0 mi Calm Calm - N/A   Overcast
4:10 AM 23.0 °F - 23.0 °F 100% 30.34 in 10.0 mi Calm Calm - N/A   Overcast
4:30 AM 23.0 °F - 23.0 °F 100% 30.35 in 10.0 mi Calm Calm - N/A   Mostly Cloudy
4:50 AM 23.0 °F - 23.0 °F 100% 30.35 in 10.0 mi Calm Calm - N/A   Scattered Clouds
5:10 AM 23.0 °F - 21.2 °F 93% 30.34 in 10.0 mi Calm Calm - N/A   Partly Cloudy
5:30 AM 21.2 °F - 19.4 °F 93% 30.35 in 10.0 mi Calm Calm - N/A   Scattered Clouds
5:50 AM 23.0 °F - 21.2 °F 93% 30.35 in 10.0 mi Calm Calm - N/A   Overcast
6:10 AM 23.0 °F - 23.0 °F 100% 30.35 in 10.0 mi Calm Calm - N/A   Overcast
6:30 AM 24.8 °F - 23.0 °F 93% 30.35 in 10.0 mi Calm Calm - N/A   Overcast
6:50 AM 24.8 °F - 24.8 °F 100% 30.35 in 10.0 mi Calm Calm - N/A   Overcast
7:10 AM 24.8 °F - 24.8 °F 100% 30.36 in 10.0 mi Calm Calm - N/A   Overcast
7:30 AM 26.6 °F - 24.8 °F 93% 30.36 in 10.0 mi Calm Calm - N/A   Overcast
7:50 AM 26.6 °F - 24.8 °F 93% 30.35 in 10.0 mi Calm Calm - N/A   Overcast
8:10 AM 26.6 °F - 26.6 °F 100% 30.36 in 10.0 mi Calm Calm - N/A   Overcast
8:30 AM 26.6 °F - 26.6 °F 100% 30.36 in 10.0 mi Calm Calm - N/A   Overcast
8:50 AM 28.4 °F - 26.6 °F 93% 30.36 in 10.0 mi Calm Calm - N/A   Overcast
9:10 AM 28.4 °F - 26.6 °F 93% 30.36 in 10.0 mi Calm Calm - N/A   Overcast
9:30 AM 28.4 °F - 26.6 °F 93% 30.36 in 10.0 mi Calm Calm - N/A   Overcast
9:50 AM 28.4 °F - 28.4 °F 100% 30.37 in 10.0 mi Calm Calm - N/A   Scattered Clouds
10:10 AM 32.0 °F - 28.4 °F 87% 30.37 in 10.0 mi Calm Calm - N/A   Mostly Cloudy
10:30 AM 32.0 °F - 28.4 °F 87% 30.37 in 10.0 mi Calm Calm - N/A   Overcast
10:50 AM 32.0 °F - 28.4 °F 87% 30.37 in 10.0 mi Calm Calm - N/A   Mostly Cloudy
11:10 AM 35.6 °F - 28.4 °F 75% 30.37 in 10.0 mi Calm Calm - N/A   Mostly Cloudy
11:30 AM 37.4 °F 34.9 °F 30.2 °F 75% 30.37 in 10.0 mi NE 3.5 mph - N/A   Mostly Cloudy
11:50 AM 39.2 °F - 30.2 °F 70% 30.37 in 10.0 mi Calm Calm - N/A   Mostly Cloudy
12:10 PM 41.0 °F - 32.0 °F 70% 30.36 in 10.0 mi Calm Calm - N/A   Scattered Clouds
12:30 PM 41.0 °F 39.0 °F 32.0 °F 70% 30.35 in 10.0 mi NE 3.5 mph - N/A   Clear
12:50 PM 44.6 °F 43.1 °F 32.0 °F 61% 30.35 in 10.0 mi ENE 3.5 mph - N/A   Clear
1:05 PM 46.4 °F - 32.0 °F 57% 30.34 in 10.0 mi Calm Calm - N/A   Clear
1:50 PM 48.2 °F - 30.2 °F 50% 30.32 in 10.0 mi Calm Calm - N/A   Partly Cloudy
2:50 PM 50.0 °F - 28.4 °F 43% 30.31 in 10.0 mi SSW 5.8 mph - N/A   Clear
3:10 PM 53.6 °F - 28.4 °F 38% 30.30 in 10.0 mi West 5.8 mph - N/A   Clear
3:30 PM 53.6 °F - 26.6 °F 35% 30.30 in 10.0 mi SW 6.9 mph - N/A   Clear
3:50 PM 53.6 °F - 26.6 °F 35% 30.29 in 10.0 mi SSW 4.6 mph - N/A   Clear
4:10 PM 53.6 °F - 26.6 °F 35% 30.29 in 10.0 mi SSW 5.8 mph - N/A   Clear
4:30 PM 53.6 °F - 26.6 °F 35% 30.29 in 10.0 mi SW 6.9 mph - N/A   Clear
4:50 PM 53.6 °F - 26.6 °F 35% 30.29 in 10.0 mi SSW 5.8 mph - N/A   Clear
5:10 PM 53.6 °F - 26.6 °F 35% 30.29 in 10.0 mi SW 4.6 mph - N/A   Clear
5:30 PM 50.0 °F - 26.6 °F 40% 30.28 in 10.0 mi Calm Calm - N/A   Clear
5:50 PM 46.4 °F - 28.4 °F 50% 30.28 in 10.0 mi Calm Calm - N/A   Clear
6:10 PM 44.6 °F - 28.4 °F 53% 30.28 in 10.0 mi Calm Calm - N/A   Clear
6:30 PM 39.2 °F - 28.4 °F 65% 30.28 in 10.0 mi Calm Calm - N/A   Clear
6:50 PM 37.4 °F - 28.4 °F 70% 30.28 in 10.0 mi Calm Calm - N/A   Clear
7:10 PM 37.4 °F 33.8 °F 28.4 °F 70% 30.28 in 10.0 mi South 4.6 mph - N/A   Clear
7:30 PM 35.6 °F - 28.4 °F 75% 30.27 in 10.0 mi Calm Calm - N/A   Clear
7:50 PM 35.6 °F - 28.4 °F 75% 30.27 in 10.0 mi Calm Calm - N/A   Clear
8:10 PM 33.8 °F - 26.6 °F 75% 30.27 in 10.0 mi Calm Calm - N/A   Clear
8:30 PM 32.0 °F - 28.4 °F 87% 30.26 in 10.0 mi Calm Calm - N/A   Clear
8:50 PM 32.0 °F - 28.4 °F 87% 30.26 in 10.0 mi Calm Calm - N/A   Clear
9:10 PM 32.0 °F - 26.6 °F 80% 30.25 in 9.0 mi Calm Calm - N/A   Clear
9:30 PM 30.2 °F 26.7 °F 26.6 °F 86% 30.25 in 10.0 mi SSW 3.5 mph - N/A   Clear
9:50 PM 30.2 °F - 28.4 °F 93% 30.25 in 10.0 mi Calm Calm - N/A   Clear
10:10 PM 30.2 °F - 26.6 °F 86% 30.25 in 10.0 mi Calm Calm - N/A   Clear
10:30 PM 28.4 °F - 26.6 °F 93% 30.24 in 10.0 mi Calm Calm - N/A   Clear
10:50 PM 28.4 °F 24.6 °F 26.6 °F 93% 30.23 in 10.0 mi SSW 3.5 mph - N/A   Clear
11:10 PM 28.4 °F - 26.6 °F 93% 30.23 in 10.0 mi Calm Calm - N/A   Clear
11:30 PM 26.6 °F - 26.6 °F 100% 30.23 in 10.0 mi Calm Calm - N/A   Clear
11:50 PM 26.6 °F - 26.6 °F 100% 30.22 in 10.0 mi Calm Calm - N/A   Clear